www.pogodaiklimat.ru
ПОГОДА в Муррее
Время
и дата
05:35 07.02
05:55 07.02
06:15 07.02
06:35 07.02
06:55 07.02
07:15 07.02
07:35 07.02
07:55 07.02
08:15 07.02
08:35 07.02
08:55 07.02
09:15 07.02
09:35 07.02
09:55 07.02
10:15 07.02
10:35 07.02
10:55 07.02
11:15 07.02
11:35 07.02
11:55 07.02
12:15 07.02
12:35 07.02
12:55 07.02
13:15 07.02
13:35 07.02
13:55 07.02
14:15 07.02
14:35 07.02
14:55 07.02
15:15 07.02
15:35 07.02
15:55 07.02
16:15 07.02
16:35 07.02
16:55 07.02
17:15 07.02
17:35 07.02
17:55 07.02
18:15 07.02
18:35 07.02
18:55 07.02
19:15 07.02
19:35 07.02
19:55 07.02
20:15 07.02
20:35 07.02
20:55 07.02
21:15 07.02
Ветер
(напр.,м/с)
Видим. Явления Облачность Т
(С)
Тd
(С)
f
(%)
Тe
(С)
Тes
(С)
Комфортность P
(гПа)
Po
(гПа)
Тmin
(С)
Tmax
(С)
R
(мм)
R24
(мм)
S
(см)
нст 3 16 км 5/0 2100 m
[Ac]
+11.0 +5.0 66 +9 +9 997.8
Ю 4 16 км ясно +11.0 +6.0 71 +9 +9 997.8
Ю 3
{6}
16 км ясно +11.0 +6.0 71 +9 +9 998.1
Ю 4 16 км ясно +11.0 +6.0 71 +9 +9 998.4
Ю 3
{5}
16 км ясно +11.0 +6.0 71 +9 +9 998.7
Ю 4 16 км ясно +11.0 +7.0 76 +9 +9 998.7
Ю 3
{7}
16 км ясно +11.0 +7.0 76 +9 +9 999.4
Ю 4 16 км ясно +12.0 +7.0 71 +10 +10 999.7
Ю 4
{6}
16 км 2/0 2100 m
[Ac]
+12.0 +7.0 71 +10 +11 999.7
Ю 5 16 км 2/0 2100 m
[Ac]
+13.0 +8.0 72 +11 +12 999.7
Ю 6 16 км ясно +14.0 +8.0 67 +12 +13 999.7
Ю 5
{9}
16 км ясно +14.0 +8.0 67 +12 +14 1000.1
Ю 6
{9}
16 км ясно +15.0 +9.0 67 +13 +15 1000.1
Ю 5
{8}
16 км 5/5 1950 м +15.0 +9.0 67 +14 +15 1000.1
Ю 6 16 км 8/8 1650 м +15.0 +9.0 67 +13 +14 1000.7
ЮЗ 4 16 км 10/10 780 м +15.0 +10.0 72 +14 +14 1000.7
Ю 4
{7}
16 км 10/10 840 м +16.0 +10.0 68 +15 +15 1000.7
Ю 5
{8}
16 км 8/8 810 м +16.0 +11.0 72 +15 +16 1000.4
Ю 6
{9}
16 км 8/8 840 м +16.0 +11.0 72 +15 +15 1000.1
Ю 7 16 км 8/8 1110 м +17.0 +11.0 68 +16 +16 1000.1
ЮЗ 6 16 км 2/2 1800 м +18.0 +12.0 68 +17 +20 999.7
Ю 7 16 км ясно +19.0 +12.0 64 +19 +22 999.4
ЮЗ 5
{9}
16 км 8/8 960 м +18.0 +12.0 68 +18 +19 999.4
ЮЗ 8 16 км 10/10 870 м +17.0 +12.0 72 +16 +16 999.4
ЮЗ 6 16 км 10/10 810 м +17.0 +12.0 72 +16 +16 999.1
ЮЗ 5 16 км 10/10 810 м +16.0 +12.0 77 +15 +15 999.1
З 4 16 км 10/10 810 м +16.0 +12.0 77 +15 +15 999.4
З 5 16 км 10/10 840 м +16.0 +12.0 77 +15 +15 999.7
З 4
{6}
16 км 10/10 840 м +16.0 +12.0 77 +15 +15 999.7
ЮЗ 5 16 км 10/10 810 м +16.0 +12.0 77 +15 +15 999.7
З 3 16 км 10/10 810 м +15.0 +12.0 82 +14 +14 1000.1
З 4 16 км 10/10 780 м +15.0 +13.0 88 +14 +14 1000.1
З 6 14 км 10/10 780 м +15.0 +14.0 94 +13 +13 1000.7
З 5 13 км 10/10 720 м +14.0 +14.0 100 +12 +12 1000.7
З 4 16 км 10/10 870 м +14.0 +14.0 100 +12 +12 1000.7
З 3 14 км 10/10 870 м +13.0 +13.0 100 +11 +11 1001.1
З 3 11 км 10/10 690 м +13.0 +13.0 100 +11 +11 1001.1
СЗ 3 11 км 10/10 810 м +13.0 +13.0 100 +11 +11 1001.1
СЗ 3 14 км 10/10 1350 м +13.0 +13.0 100 +11 +11 1001.4
СЗ 3 16 км 10/10 1410 м +13.0 +13.0 100 +11 +11 1001.4
СЗ 2 16 км 10/10 1470 м +12.0 +13.0 100 +11 +11 1001.4
СЗ 3 16 км 10/10 1500 м +12.0 +12.0 100 +10 +10 1001.7
С 3 16 км 10/10 840 м +12.0 +12.0 100 +10 +10 1001.7
С 2 16 км 10/10 870 м +12.0 +12.0 100 +11 +11 1001.7
С 3 16 км 10/10 210 м +12.0 +12.0 100 +10 +10 1001.7
С 2 14 км 10/10 150 м +12.0 +12.0 100 +11 +11 1001.7
В 2 11 км 10/10 150 м +12.0 +12.0 100 +11 +11 1001.4
В 2 13 км 10/10 180 м +11.0 +12.0 100 +10 +10 1001.7
Местоположение метеостанции Kyle-Oakley Field Airport: широта 36.6646 долгота -88.3728 высота над уровнем моря 176 м.
В архиве по умолчанию представлена погода в Муррее за последние 1-2 суток. Обновление информации о фактической погоде в базе происходит ежечасно! Архивные данные за месяц целиком и за предыдущие месяцы Вы можете получить, выбрав интересующий диапазон дат из раскрывающегося списка и нажав кнопку "Ввод!".
Внимание! Архив погоды МЕТАР в базе сайта по станциям, не включенным в климатический монитор, хранится не более 60 дней. Нет смысла пытаться выбрать более раннюю дату.
*Определитесь, кто Вы:
Внимание! Время в таблицах - местное (без учета летнего времени). Для получения всемирного времени необходимо вычесть поправку, которая равна -6 ч.
Смотрите также архив погоды в соседних городах и на ближайших метеорологических станциях:
Партнеры нашего сайта:      
Пояснения к столбцам:
  • Ветер - указаны скорость ветра в м/с - средняя за 10 мин, порывы в срок и между сроками (в фигурных скобках) и направление, откуда дует ветер: С - северный,
  • СВ - северо-восточный, В - восточный, ЮВ - юго-восточный, Ю - южный, ЮЗ - юго-западный, З - западный, СЗ - северо-западный.
  • Видимость - горизонтальная дальность видимости в метрах или километрах. При видимости от 1 до 10 км при отсутствии осадков обычно наблюдается дымка, при ухудшении видимости до 1 км и менее - туман. В сухую погоду видимость может ухудшаться дымом, пылью или мглою.
  • Явления - указаны атмосферные явления, наблюдавшиеся в срок или в последний час перед сроком; фигурными скобками обозначены явления, наблюдавшиеся между сроками (за 1-3 часа до срока); квадратными скобками обозначены град или гололедные отложения с указанием их диаметра в мм.
  • Облачность - указаны через наклонную черту общая и нижняя облачность в баллах и высота нижней границы облаков в метрах; квадратными скобками обозначены формы облаков: Ci - перистые, Cs - перисто-слоистые, Cc - перисто-кучевые, Ac - высококучевые, As - высокослоистые, Sc - слоисто-кучевые, Ns - слоисто-дождевые, Cu - кучевые, Cb - кучево-дождевые. Подробнее классификацию облаков см. в Атласе облаков (PDF).
  • T - Температура воздуха - температура, измеренная на высоте 2 м над землей.
  • Td - Температура точки росы - температура, при понижении до которой содержащийся в воздухе водяной пар достигнет насыщения.
  • f - Относительная влажность воздуха - влажноcть воздуха, измеренная на высоте 2 м над землей.
  • Te - Эффективная температура - температура, которую ощущает одетый по сезону человек в тени. Характеристика душности погоды. При расчете учитывается влияние влажности воздуха и скорости ветра на теплоощущения человека.
  • Tes - Эффективная температура на солнце - температура, которую ощущает человек, с поправкой на солнечный нагрев. Характеристика знойности погоды. Зависит от высоты солнца над горизонтом, облачности и скорости ветра. Ночью, в пасмурную погоду, а также при ветре 12 м/с и более поправка равна нулю.
  • P - Атмосферное давление - приведенное к уровню моря атмосферное давление.
  • Po - Атмосферное давление - измеренное на уровне метеостанции атмосферное давление.
  • Tmin - Минимальная температура - минимум температуры воздуха на высоте 2 м над землей.
  • Tmax - Максимальная температура - максимум температуры воздуха на высоте 2 м над землей.
  • R - Количество осадков - Количество выпавших осадков за период времени, мм. При наведении курсора мыши на число - период времени, за который выпало указанное количество осадков.
  • R24 - Количество осадков - Количество выпавших осадков за 24 часа, мм.
  • S - Снежный покров - Высота снежного покрова, см. При наведении курсора мыши на число - состояние снежного покрова и степень покрытия местности в баллах.